Location: Les Moreaux
(47.2278°N, 1.4966°E)
Time: 20:51:17
(UTC+00:00)

CENTAUR R/B - Pass Details

Date: 19 May 2025
Orbit: 644 x 1537 km, 63.4° (Epoch: 18 June)

Event Time Altitude Azimuth Distance (km) Brightness Sun altitude
Rises 23:12:37 0° 319° (NW) 4,084 6.7 -22.2°
Reaches altitude 10° 23:15:14 10° 323° (NW) 3,233 6.1 -22.3°
Maximum altitude 23:23:16 63° 44° (NE) 1,557 3.6 -22.5°
Enters shadow 23:31:29 14° 123° (ESE) 3,377 4.9 -22.6°
